Weatherford, OK

7:19 AM CDT on September 19, 2017 (GMT -0500)
Weatherford

Weather History for KOJA - April, 2014

Change the Weather History Date:

Wednesday, April 16, 2014

  Actual Average (KJWG) Record (KJWG)
Temperature  
Mean Temperature 56 °F -  
Max Temperature 71 °F 74 °F 89 °F (1963)
Min Temperature 42 °F 48 °F 30 °F (1961)
Degree Days  
Heating Degree Days 8    
Growing Degree Days 6 (Base 50)    
Moisture  
Dew Point 30 °F    
Average Humidity 38    
Maximum Humidity 57    
Minimum Humidity 23    
Precipitation  
Precipitation 0.00 in - - ()
Sea Level Pressure  
Sea Level Pressure 29.91 in    
Wind  
Wind Speed 16 mph (South)    
Max Wind Speed 28 mph    
Max Gust Speed 40 mph    
Visibility 10 miles    
Events      
Averages and records for this station are not official NWS values.
T = Trace of Precipitation, MM = Missing Value Source: NWS Daily Summary

Daily Weather History Graph

Daily Weather History Graph

Search for Another Location

Airport or City:

Trip Planner

Search our weather history database for the weather conditions in past years. The results will help you decide how hot, cold, wet, or windy it might be!

Date:

Astronomy

Apr. 16, 2014 Rise Set
Actual Time 7:00 AM CDT 8:08 PM CDT
Civil Twilight 6:34 AM CDT 8:35 PM CDT
Nautical Twilight 6:03 AM CDT 9:06 PM CDT
Astronomical Twilight 5:30 AM CDT 9:38 PM CDT
Moon 9:50 PM CDT (4/16) 7:51 AM CDT (4/16)
Length of Visible Light 14h 00m
Length of Day
13h 07m
Full, 98% of the Moon is Illuminated
Apr 16
Full
Apr 22
Last Quarter
Apr 29
New
May 6
First Quarter
May 14
Full

Hourly Weather History & Observations

Time (CDT) Temp. Windchill Dew Point Humidity Pressure Visibility Wind Dir Wind Speed Gust Speed Precip Events Conditions
12:15 AM 50.0 °F - 23.0 °F 35% 29.97 in 10.0 mi South 13.8 mph 19.6 mph N/A   Clear
12:35 AM 50.0 °F - 23.0 °F 35% 29.96 in 10.0 mi SSE 16.1 mph 21.9 mph N/A   Clear
12:55 AM 50.0 °F - 24.8 °F 37% 29.96 in 10.0 mi SSE 15.0 mph 20.7 mph N/A   Clear
1:15 AM 50.0 °F - 24.8 °F 37% 29.96 in 10.0 mi South 17.3 mph 21.9 mph N/A   Clear
1:35 AM 50.0 °F - 24.8 °F 37% 29.95 in 10.0 mi South 15.0 mph 21.9 mph N/A   Clear
1:55 AM 48.2 °F - 24.8 °F 40% 29.95 in 10.0 mi South 12.7 mph - N/A   Clear
2:15 AM 48.2 °F - 24.8 °F 40% 29.95 in 10.0 mi South 15.0 mph 20.7 mph N/A   Clear
2:35 AM 46.4 °F 39.8 °F 26.6 °F 46% 29.94 in 10.0 mi South 16.1 mph - N/A   Clear
2:55 AM 46.4 °F 40.4 °F 26.6 °F 46% 29.94 in 10.0 mi South 13.8 mph - N/A   Clear
3:15 AM 46.4 °F 39.8 °F 26.6 °F 46% 29.93 in 10.0 mi South 16.1 mph 20.7 mph N/A   Clear
3:35 AM 46.4 °F 39.5 °F 26.6 °F 46% 29.93 in 10.0 mi South 17.3 mph - N/A   Clear
3:55 AM 46.4 °F 40.1 °F 26.6 °F 46% 29.93 in 10.0 mi South 15.0 mph 21.9 mph N/A   Clear
4:15 AM 44.6 °F 38.1 °F 26.6 °F 49% 29.93 in 10.0 mi South 13.8 mph 20.7 mph N/A   Clear
4:35 AM 44.6 °F 37.8 °F 26.6 °F 49% 29.92 in 10.0 mi South 15.0 mph 23.0 mph N/A   Clear
4:55 AM 44.6 °F 37.8 °F 28.4 °F 53% 29.91 in 10.0 mi South 15.0 mph 20.7 mph N/A   Clear
5:15 AM 44.6 °F 38.4 °F 28.4 °F 53% 29.91 in 10.0 mi South 12.7 mph 20.7 mph N/A   Clear
5:35 AM 44.6 °F 37.4 °F 28.4 °F 53% 29.90 in 10.0 mi South 16.1 mph 23.0 mph N/A   Clear
5:55 AM 44.6 °F 37.2 °F 28.4 °F 53% 29.89 in 10.0 mi South 17.3 mph 21.9 mph N/A   Clear
6:15 AM 44.6 °F 36.9 °F 28.4 °F 53% 29.89 in 10.0 mi South 18.4 mph 25.3 mph N/A   Clear
6:35 AM 44.6 °F 36.9 °F 28.4 °F 53% 29.89 in 10.0 mi South 18.4 mph 26.5 mph N/A   Clear
6:55 AM 44.6 °F 37.2 °F 28.4 °F 53% 29.89 in 10.0 mi South 17.3 mph 25.3 mph N/A   Clear
7:15 AM 42.8 °F 35.4 °F 28.4 °F 57% 29.90 in 10.0 mi South 15.0 mph 19.6 mph N/A   Clear
7:35 AM 44.6 °F 37.8 °F 28.4 °F 53% 29.90 in 10.0 mi South 15.0 mph 23.0 mph N/A   Clear
7:55 AM 44.6 °F 37.4 °F 28.4 °F 53% 29.90 in 10.0 mi South 16.1 mph 25.3 mph N/A   Clear
8:15 AM 46.4 °F 38.7 °F 28.4 °F 50% 29.91 in 10.0 mi South 20.7 mph 25.3 mph N/A   Clear
8:35 AM 46.4 °F 38.5 °F 28.4 °F 50% 29.91 in 10.0 mi South 21.9 mph 28.8 mph N/A   Clear
8:55 AM 48.2 °F - 30.2 °F 50% 29.91 in 10.0 mi South 17.3 mph 24.2 mph N/A   Clear
9:15 AM 50.0 °F - 30.2 °F 47% 29.91 in 10.0 mi South 20.7 mph 29.9 mph N/A   Clear
9:35 AM 51.8 °F - 28.4 °F 41% 29.91 in 10.0 mi South 24.2 mph 34.5 mph N/A   Clear
9:55 AM 53.6 °F - 28.4 °F 38% 29.91 in 10.0 mi South 25.3 mph 33.4 mph N/A   Clear
10:15 AM 55.4 °F - 28.4 °F 36% 29.90 in 10.0 mi South 23.0 mph 33.4 mph N/A   Clear
10:35 AM 55.4 °F - 28.4 °F 36% 29.90 in 10.0 mi South 26.5 mph 34.5 mph N/A   Clear
10:55 AM 59.0 °F - 28.4 °F 31% 29.90 in 10.0 mi South 27.6 mph 40.3 mph N/A   Clear
11:15 AM 60.8 °F - 28.4 °F 29% 29.91 in 10.0 mi South 27.6 mph 35.7 mph N/A   Clear
11:35 AM 60.8 °F - 28.4 °F 29% 29.91 in 10.0 mi SSW 24.2 mph 38.0 mph N/A   Clear
11:55 AM 60.8 °F - 28.4 °F 29% 29.90 in 10.0 mi SSW 24.2 mph 35.7 mph N/A   Clear
12:15 PM 60.8 °F - 30.2 °F 31% 29.91 in 10.0 mi South 21.9 mph 35.7 mph N/A   Clear
12:35 PM 62.6 °F - 30.2 °F 30% 29.90 in 10.0 mi South 21.9 mph 29.9 mph N/A   Clear
1:15 PM 64.4 °F - 30.2 °F 28% 29.88 in 10.0 mi SSW 21.9 mph 29.9 mph N/A   Clear
1:35 PM 64.4 °F - 30.2 °F 28% 29.88 in 10.0 mi SSW 17.3 mph 28.8 mph N/A   Clear
1:55 PM 68.0 °F - 30.2 °F 24% 29.88 in 10.0 mi SSW 20.7 mph 32.2 mph N/A   Clear
2:15 PM 68.0 °F - 30.2 °F 24% 29.87 in 10.0 mi South 21.9 mph 31.1 mph N/A   Clear
2:35 PM 68.0 °F - 30.2 °F 24% 29.87 in 10.0 mi South 20.7 mph 28.8 mph N/A   Clear
2:55 PM 69.8 °F - 30.2 °F 23% 29.87 in 10.0 mi South 18.4 mph 25.3 mph N/A   Clear
3:15 PM 69.8 °F - 30.2 °F 23% 29.87 in 10.0 mi South 17.3 mph 28.8 mph N/A   Clear
3:35 PM 69.8 °F - 32.0 °F 25% 29.86 in 10.0 mi SSW 15.0 mph 26.5 mph N/A   Clear
3:55 PM 69.8 °F - 32.0 °F 25% 29.86 in 10.0 mi SSW 15.0 mph 24.2 mph N/A   Clear
4:15 PM 71.6 °F - 32.0 °F 23% 29.85 in 10.0 mi SSW 15.0 mph 23.0 mph N/A   Clear
4:35 PM 71.6 °F - 32.0 °F 23% 29.85 in 10.0 mi SSW 15.0 mph 26.5 mph N/A   Clear
4:55 PM 69.8 °F - 32.0 °F 25% 29.85 in 10.0 mi SSW 9.2 mph 23.0 mph N/A   Clear
5:15 PM 69.8 °F - 32.0 °F 25% 29.85 in 10.0 mi South 11.5 mph 21.9 mph N/A   Clear
5:35 PM 71.6 °F - 32.0 °F 23% 29.85 in 10.0 mi South 10.4 mph - N/A   Clear
5:55 PM 69.8 °F - 32.0 °F 25% 29.86 in 10.0 mi South 15.0 mph - N/A   Clear
6:15 PM 68.0 °F - 32.0 °F 26% 29.86 in 10.0 mi South 11.5 mph - N/A   Clear
6:35 PM 68.0 °F - 32.0 °F 26% 29.86 in 10.0 mi SSE 12.7 mph 21.9 mph N/A   Clear
6:55 PM 66.2 °F - 32.0 °F 28% 29.87 in 10.0 mi SSE 10.4 mph - N/A   Clear
7:15 PM 66.2 °F - 32.0 °F 28% 29.88 in 10.0 mi SSE 11.5 mph - N/A   Clear
7:35 PM 64.4 °F - 32.0 °F 30% 29.88 in 10.0 mi SSE 13.8 mph - N/A   Clear
7:55 PM 64.4 °F - 32.0 °F 30% 29.88 in 10.0 mi SSE 10.4 mph - N/A   Clear
8:15 PM 60.8 °F - 32.0 °F 34% 29.90 in 10.0 mi SSE 10.4 mph - N/A   Clear
8:35 PM 59.0 °F - 33.8 °F 39% 29.91 in 10.0 mi SE 10.4 mph - N/A   Clear
8:55 PM 57.2 °F - 33.8 °F 41% 29.92 in 10.0 mi SE 8.1 mph - N/A   Clear
9:15 PM 55.4 °F - 33.8 °F 44% 29.94 in 10.0 mi SE 8.1 mph - N/A   Clear
9:35 PM 55.4 °F - 33.8 °F 44% 29.95 in 10.0 mi SE 10.4 mph - N/A   Clear
9:55 PM 55.4 °F - 33.8 °F 44% 29.96 in 10.0 mi SE 10.4 mph - N/A   Clear
10:15 PM 55.4 °F - 35.6 °F 47% 29.96 in 10.0 mi SE 12.7 mph - N/A   Clear
10:35 PM 55.4 °F - 35.6 °F 47% 29.97 in 10.0 mi SE 13.8 mph - N/A   Clear
10:55 PM 55.4 °F - 35.6 °F 47% 29.98 in 10.0 mi SE 11.5 mph 17.3 mph N/A   Clear
11:15 PM 53.6 °F - 35.6 °F 51% 29.98 in 10.0 mi SE 11.5 mph - N/A   Clear
11:35 PM 53.6 °F - 35.6 °F 51% 29.99 in 10.0 mi SE 10.4 mph - N/A   Clear
11:55 PM 53.6 °F - 37.4 °F 54% 30.00 in 10.0 mi SE 10.4 mph - N/A   Clear